Back to catalog

FENGYUN 1C DEB

AliveSSO
NORAD 29911·DEBRIS·🇨🇳 China

Launched May 10, 1999 from Taiyuan Satellite Launch Center

Loading…

Next Passes (next 24 hours)

TLE

FreshSource: Space-Track

Epoch: Sep 14, 2026, 09:37 UTC

1 29911U 99025HH  26257.40111145  .00000730  00000-0  36532-3 0  9998
2 29911  98.6892 300.5715 0027123  80.2239 292.4203 14.19564305 13404

Track FENGYUN 1C DEB in real time with AllMySat

Download on the App Store